Location: ?astrovice
(49.6513°N, 14.9287°E)
Time: 01:49:06
(UTC+00:00)

X-37B - Pass Details

Date: 02 August 2021
Orbit: 381 x 393 km, 45.0° (Epoch: 29 August)

Event Time Altitude Azimuth Distance (km) Brightness Sun altitude
Exits shadow 02:35:52 - 196° (SSW) 1,538 3.1 -8.3°
Reaches altitude 10° 02:36:26 10° 188° (S) 1,393 2.9 -8.3°
Maximum altitude 02:38:13 14° 154° (SSE) 1,169 2.9 -8.0°
Drops below altitude 10° 02:40:00 10° 119° (ESE) 1,397 3.7 -7.8°
Sets 02:42:44 0° 93° (E) 2,254 5.3 -7.5°
